FENGYUN 1C DEB, 35220

Orbit data source: Space-Track

FENGYUN 1C DEB, 35220 is space debris in SSO originally from a launch on Mon, 10 May 1999 UTC launched from the Taiyaun Space Center, China (TSC). Fengyun 1C debris stems from the Chinese weather satellite Fengyun-1C, which was intentionally destroyed by a Chinese anti-satellite missile in 2007. This event dramatically increased the amount of space debris, with thousands of trackable fragments posing hazards to satellites and human spaceflight. The Fengyun 1C debris cloud has become a focal point in discussions about space sustainability and the need for international regulations to prevent the creation of new debris.

Loading next visibility...
Identifier
35220, 1999-025DQC
Orbit
SSO
Country
Flag of CNCN / PRC
Related business
Manufacturer
Unknown
Mission
Spacecraft
Bus & Motor
Unknown
Mass
Unknown
Launch date (UTC)
1999-05-10 (27 years ago)
Launch vehicle
Unknown
Launch site
Taiyaun Space Center, China (TSC)
Object type
Payload
Rocket body
Debris
Shape & HBR
Unknown shape, 0.1 m
Radar Cross Section
Small (<0.1 m²)

Expand to show TLE details & history
Last TLE update: 1 day ago

TLE from 1 day ago
0 FENGYUN 1C DEB
1 35220U 99025DQC 26103.16932259  .00001735  00000-0  77673-3 0  9995
2 35220  99.0152 181.1798 0041830 320.2579  39.5536 14.23498567649109
Epoch: 2026-04-13T04:03Z
TLE epoch observation values (Epoch: 2026-04-13T04:03:49.471Z)
Latitude
-0.00003°
Longitude
-81.14011°
Altitude
793.306 km
Speed
7.469 km/s
True Right ascension
12h 04m 43s
True Declination
0° 00' 00"
Sunlit
Object was in full shadow at epoch
Visualization orbit readout
Latitude
Unknown
Longitude
Unknown
Altitude
Unknown
Speed
Unknown
Apparent Right ascension
Unknown
Apparent Declination
Unknown
Sunlit
N/A
Visualization observer readout
Local Sidereal Time
19:21:35
Azimuth
Unknown
Elevation
Unknown
Doppler factor
Unknown
Orbital elements
Apogee altitude
840.785 km
Perigee altitude
780.643 km
Semi-major axis
7,188.851 km
Eccentricity
0.00418
Inclination
99.0152°
RAAN
181.1798°
Arg. of periapsis
320.2579°
True anomaly
39.86008°
Mean anomaly
39.5536°
Eccentric anomaly
39.70671°
Mean motion
3.56085 °/min
Orbital period
101.1 mins
BSTAR
0.00077673
Loading maneuver chart data...
Computing Atmospheric mass density...

Documentation

Showing up to 5 results
|